RH
54 83 91 71 93 81 68 50 31 18 17 20 19 20 16 14 12 13 13 13 16 21 25 30 35 48 44 36 30 30 37 66 56
58 80 86 91 75 78 69 55 25 20 19 22 22 17 15 14 13 15 18 22 26 33 48 47 43 41 37 27 26 28 48 92 81
94 94 79 62 70 92 78 52 32 21 19 23 22 17 15 15 16 25 34 43 55 56 51 44 41 34 28 23 24 40 63 78 89
90 100 89 99 99 60 52 37 22 32 25 26 26 19 16 20 32 42 47 46 41 39 32 29 24 20 19 24 31 45 80 93 100
100 100 89 66 54 43 38 27 27 37 30 30 31 21 22 34 49 42 34 26 23 23 23 22 20 18 19 20 35 51 91 100 100
85 85 65 62 57 53 40 34 39 43 31 32 32 22 34 46 42 34 22 21 22 19 15 14 14 16 19 26 43 67 99 100 99
84 77 72 61 61 52 40 40 40 40 39 37 31 30 42 44 37 23 20 22 23 18 17 15 14 16 20 25 37 63 84 100 100
80 75 76 66 58 40 40 43 44 46 50 43 25 40 45 37 26 22 22 24 23 21 21 20 17 17 24 27 43 72 76 92 100
66 68 67 64 51 43 40 46 46 58 47 31 44 55 50 38 28 26 25 25 24 26 27 25 21 19 21 40 70 61 78 97 96
79 77 70 58 46 42 63 54 61 52 28 41 61 61 53 52 48 40 43 44 41 38 33 28 28 25 21 22 48 49 67 93 94
77 68 60 44 37 64 75 64 65 30 30 47 60 56 61 54 52 52 50 48 45 43 42 40 38 34 31 28 23 29 42 58 91
78 67 57 46 60 93 83 72 41 24 36 49 56 58 50 37 35 34 32 23 20 20 20 22 29 41 45 44 39 34 27 32 55
85 76 61 60 86 97 82 35 19 21 31 44 40 34 27 23 19 18 16 15 14 14 14 14 14 15 16 20 39 44 43 40 38
92 97 100 89 98 89 53 20 18 23 24 24 22 20 18 19 19 18 18 17 17 17 17 17 17 16 16 15 14 14 17 22 28
100 100 100 92 93 49 25 22 20 20 19 19 21 22 21 20 20 20 20 20 19 19 19 19 19 18 17 16 16 16 16 14 14
80 96 99 96 48 29 23 22 21 21 24 23 21 24 24 24 24 24 24 22 22 21 21 22 22 20 18 16 15 15 15 16 17
100 100 82 44 26 22 22 22 22 22 24 23 24 24 22 23 26 26 24 22 20 20 20 22 21 19 17 15 14 13 14 14 16
94 61 30 26 23 22 25 26 25 25 26 25 24 23 24 26 33 30 25 21 20 21 19 18 17 16 14 13 13 13 14 16 17
50 40 27 24 24 27 29 28 27 29 28 25 25 24 25 28 29 32 26 23 26 24 20 18 18 17 16 17 18 18 17 17 17
29 27 27 28 29 31 30 29 29 28 29 29 27 26 24 24 22 21 21 23 23 20 18 18 19 21 22 23 23 23 22 22 22
Wind_Speed
50 51 50 53 53 55 57 57 61 66 65 64 66 67 67 69 68 66 67 66 63 59 57 58 59 57 58 56 56 57 55 49 46
56 51 53 57 59 61 61 60 65 66 64 62 67 68 70 70 64 62 58 55 53 53 51 52 54 55 56 57 57 56 50 51 50
55 56 57 60 63 59 61 67 71 67 66 68 71 70 71 66 59 52 49 47 47 49 51 51 52 54 56 56 56 53 53 53 52
55 54 59 61 60 62 66 69 71 64 66 69 70 70 68 58 52 48 47 49 50 51 51 53 55 55 54 55 54 53 51 51 52
58 60 54 57 64 65 67 67 66 65 68 71 72 70 62 53 49 49 51 52 51 51 52 53 54 54 54 52 52 50 50 51 53
60 57 59 61 61 66 69 69 68 68 71 71 73 66 55 51 51 53 53 50 50 49 49 49 50 52 52 52 52 51 52 53 54
58 58 58 63 66 70 72 67 71 71 70 72 71 59 52 51 52 52 49 49 48 46 46 47 49 50 52 52 52 53 55 54 55
58 60 61 65 69 74 70 69 71 73 71 71 65 53 51 51 51 50 49 48 46 46 46 46 48 49 51 54 54 56 57 58 57
64 64 65 70 72 71 67 69 74 72 68 61 52 48 48 47 48 48 48 48 48 47 47 47 46 49 52 55 58 61 60 61 62
69 71 71 72 72 71 69 70 72 68 59 53 49 47 47 47 47 47 48 49 48 49 50 50 50 49 49 54 61 62 65 66 66
71 71 67 70 70 66 67 68 68 62 54 48 45 47 45 46 47 49 51 53 54 55 55 54 54 54 54 54 55 63 68 71 73
72 69 71 70 67 67 66 66 62 57 51 47 46 47 49 50 51 52 53 54 54 55 56 56 57 58 59 60 60 60 61 69 79
67 66 68 68 68 67 62 58 57 52 51 47 47 48 50 51 53 54 54 55 56 57 58 59 60 62 63 65 66 67 67 69 70
67 64 64 69 66 60 53 54 50 48 48 48 49 49 50 52 52 54 56 57 59 60 60 62 63 65 68 70 72 73 75 76 78
64 65 66 64 56 51 50 47 47 48 49 49 50 52 54 56 58 60 61 62 63 65 67 69 71 72 73 76 78 79 81 82 83
65 62 59 50 50 49 48 48 47 49 50 53 55 55 58 60 64 68 70 71 72 74 76 79 81 83 84 86 86 86 87 88 90
56 53 47 49 47 47 47 48 49 52 53 56 60 61 63 64 68 72 74 77 80 82 84 86 88 90 93 95 95 94 94 95 96
46 46 46 46 47 47 49 51 54 56 58 62 63 65 69 71 77 82 85 85 88 92 93 95 97 99 102 102 101 100 99 98 99
45 44 46 46 48 50 53 55 59 61 64 66 69 71 72 74 75 87 95 96 99 102 105 108 109 106 103 99 97 96 97 98 99
44 45 48 49 52 55 58 61 64 67 70 72 74 77 80 82 79 81 91 98 104 108 113 109 102 101 100 100 100 100 101 102 103
Wind_Direction
278 285 282 285 289 291 293 295 298 302 300 300 297 301 298 301 296 290 287 287 284 279 277 275 275 273 273 273 272 271 270 267 268
277 278 280 284 288 289 289 296 302 304 298 301 307 303 303 301 297 292 288 286 283 281 280 278 274 273 273 273 272 271 267 262 263
277 275 278 284 284 287 293 297 301 301 300 305 309 308 306 301 296 292 288 287 285 284 283 281 277 274 274 272 271 268 264 261 264
275 275 278 282 287 294 297 301 302 299 307 310 309 309 307 300 295 293 292 290 286 284 282 280 278 275 272 270 268 265 259 261 267
289 275 277 283 289 292 297 301 302 302 307 310 312 310 304 298 295 293 292 291 288 285 282 281 279 276 272 271 265 261 259 262 263
282 277 283 284 287 293 297 301 302 305 306 309 311 307 300 297 295 296 294 292 290 286 284 283 279 276 273 268 263 257 256 260 263
277 278 280 284 286 296 300 302 304 305 306 307 309 301 297 297 297 296 296 294 292 289 287 284 280 277 273 268 264 260 256 261 261
279 281 281 285 290 295 298 303 304 305 305 306 304 299 298 298 298 297 296 295 293 291 290 288 284 279 273 269 263 260 258 257 257
280 280 283 287 292 296 298 302 304 305 304 302 301 299 300 302 301 301 300 300 298 295 291 290 288 282 276 269 264 263 259 260 258
278 281 285 289 291 294 299 302 302 302 300 299 298 301 301 301 302 301 302 303 302 302 300 296 291 285 281 274 267 268 261 260 258
279 284 287 292 292 293 297 300 299 297 297 299 301 302 300 301 299 300 300 300 300 300 298 296 294 291 286 282 277 271 266 264 261
279 283 286 291 292 293 294 296 295 295 296 299 300 301 300 300 298 298 298 297 297 295 294 293 291 290 288 286 282 278 273 267 264
278 281 285 289 289 289 291 291 292 296 297 297 300 299 299 298 297 296 296 296 295 293 292 292 291 289 287 285 283 281 279 275 271
278 279 283 286 285 287 288 288 294 296 297 299 298 296 294 295 295 294 294 294 294 293 292 292 291 289 287 285 284 281 279 277 276
276 279 281 282 284 284 285 288 291 293 294 294 294 294 296 296 296 295 295 295 295 294 293 292 291 290 289 286 283 280 277 276 274
275 276 276 278 280 282 284 287 289 290 291 293 293 294 295 298 298 300 299 298 297 296 294 293 291 291 290 289 286 283 279 276 274
271 273 275 277 279 282 285 285 286 288 289 290 290 293 294 295 296 297 298 298 296 296 294 291 290 288 289 288 286 283 280 277 274
270 272 275 278 281 283 283 285 286 287 286 287 287 288 293 296 300 300 300 299 298 298 296 294 291 289 288 286 285 282 280 277 274
270 273 276 279 281 280 283 285 286 287 287 287 287 289 291 292 296 301 302 302 302 301 300 299 297 293 291 288 286 283 281 278 276
271 275 278 279 279 281 283 285 287 287 287 287 289 290 291 292 293 296 297 300 300 300 300 297 295 293 291 289 287 285 282 280 279